Weather History for Ocala, FL

Change the Weather History Date:

Wednesday, January 23, 2013

  Actual Average Record
Temperature  
Mean Temperature 49 °F -  
Max Temperature 66 °F 66 °F 82 °F (1999)
Min Temperature 32 °F 41 °F 26 °F (2009)
Degree Days  
Heating Degree Days 16    
Moisture  
Dew Point 29 °F    
Average Humidity 60    
Maximum Humidity 93    
Minimum Humidity 24    
Precipitation  
Precipitation 0.00 in - - ()
Sea Level Pressure  
Sea Level Pressure 30.33 in    
Wind  
Wind Speed 1 mph (North)    
Max Wind Speed 9 mph    
Max Gust Speed -    
Visibility 10 miles    
Events      
Averages and records for this station are not official NWS values.
T = Trace of Precipitation, MM = Missing Value Source: NWS Daily Summary

Daily Weather History Graph

Daily Weather History Graph

Search for Another Location

Airport:

Trip Planner

Search our weather history database for the weather conditions in past years. The results will help you decide how hot, cold, wet, or windy it might be!

Date:

Astronomy

Jan. 23, 2013 Rise Set
Actual Time 7:21 AM EST 6:00 PM EST
Civil Twilight 6:56 AM EST 6:25 PM EST
Nautical Twilight 6:27 AM EST 6:54 PM EST
Astronomical Twilight 5:59 AM EST 7:22 PM EST
Moon 3:13 PM EST (1/23) 4:28 AM EST (1/23)
Length of Visible Light 11h 28m
Length of Day
10h 38m
Waxing Gibbous, 89% of the Moon is Illuminated
Jan 23
Waxing Gibbous
Jan 26
Full
Feb 3
Last Quarter
Feb 10
New
Feb 17
First Quarter

Hourly Weather History & Observations

Time (EST) Temp. Windchill Dew Point Humidity Pressure Visibility Wind Dir Wind Speed Gust Speed Precip Events Conditions
12:15 AM 41.0 °F - 30.2 °F 65% 30.32 in 10.0 mi Calm Calm - N/A   Clear
12:35 AM 39.2 °F - 30.2 °F 70% 30.32 in 10.0 mi Calm Calm - N/A   Clear
12:55 AM 39.2 °F - 30.2 °F 70% 30.32 in 10.0 mi Calm Calm - N/A   Clear
1:15 AM 39.2 °F 37.0 °F 28.4 °F 65% 30.32 in 10.0 mi North 3.5 mph - N/A   Clear
1:35 AM 39.2 °F 37.0 °F 30.2 °F 70% 30.32 in 10.0 mi North 3.5 mph - N/A   Clear
1:55 AM 39.2 °F 37.0 °F 30.2 °F 70% 30.32 in 10.0 mi North 3.5 mph - N/A   Clear
2:15 AM 37.4 °F - 28.4 °F 70% 30.32 in 10.0 mi Calm Calm - N/A   Clear
2:35 AM 37.4 °F - 28.4 °F 70% 30.32 in 10.0 mi Calm Calm - N/A   Clear
2:55 AM 35.6 °F - 28.4 °F 75% 30.32 in 10.0 mi Calm Calm - N/A   Clear
3:15 AM 35.6 °F - 28.4 °F 75% 30.33 in 10.0 mi Calm Calm - N/A   Clear
3:35 AM 35.6 °F - 28.4 °F 75% 30.33 in 10.0 mi Calm Calm - N/A   Clear
3:55 AM 35.6 °F - 26.6 °F 70% 30.33 in 10.0 mi Calm Calm - N/A   Clear
4:15 AM 33.8 °F - 26.6 °F 75% 30.33 in 10.0 mi Calm Calm - N/A   Clear
4:35 AM 33.8 °F - 26.6 °F 75% 30.34 in 10.0 mi Calm Calm - N/A   Clear
4:55 AM 33.8 °F - 26.6 °F 75% 30.33 in 10.0 mi Calm Calm - N/A   Clear
5:15 AM 33.8 °F - 26.6 °F 75% 30.33 in 10.0 mi Calm Calm - N/A   Clear
5:35 AM 33.8 °F 29.6 °F 26.6 °F 75% 30.34 in 10.0 mi North 4.6 mph - N/A   Clear
5:55 AM 33.8 °F - 26.6 °F 75% 30.35 in 10.0 mi Calm Calm - N/A   Clear
6:15 AM 33.8 °F - 26.6 °F 75% 30.35 in 10.0 mi Calm Calm - N/A   Clear
6:35 AM 32.0 °F - 26.6 °F 80% 30.36 in 10.0 mi Calm Calm - N/A   Clear
6:50 AM 32.0 °F - 30.2 °F 93% 30.36 in 10.0 mi Calm Calm - N/A   Clear
7:50 AM 33.8 °F - 30.2 °F 87% 30.36 in 10.0 mi Calm Calm - N/A   Clear
8:50 AM 42.8 °F 40.1 °F 32.0 °F 66% 30.38 in 10.0 mi North 4.6 mph - N/A   Clear
9:50 AM 51.8 °F - 30.2 °F 44% 30.41 in 10.0 mi NNE 5.8 mph - N/A   Clear
10:50 AM 57.2 °F - 28.4 °F 33% 30.42 in 10.0 mi NNE 9.2 mph - N/A   Clear
11:50 AM 60.8 °F - 28.4 °F 29% 30.39 in 7.0 mi NE 6.9 mph - N/A   Clear
12:50 PM 64.4 °F - 26.6 °F 24% 30.35 in 7.0 mi North 6.9 mph - N/A   Clear
1:50 PM 64.4 °F - 28.4 °F 26% 30.32 in 5.0 mi NNW 4.6 mph - N/A   Smoke
2:50 PM 66.2 °F - 28.4 °F 24% 30.30 in 7.0 mi North 5.8 mph - N/A   Clear
3:50 PM 66.2 °F - 28.4 °F 24% 30.31 in 10.0 mi North 5.8 mph - N/A   Clear
4:50 PM 64.4 °F - 30.2 °F 28% 30.32 in 10.0 mi NNW 5.8 mph - N/A   Clear
5:50 PM 60.8 °F - 30.2 °F 31% 30.32 in 10.0 mi Calm Calm - N/A   Clear
6:50 PM 51.8 °F - 30.2 °F 44% 30.32 in 10.0 mi Calm Calm - N/A   Clear
7:55 PM 48.2 °F - 30.2 °F 50% 30.32 in 10.0 mi Calm Calm - N/A   Clear
8:15 PM 48.2 °F - 30.2 °F 50% 30.32 in 10.0 mi Calm Calm - N/A   Clear
8:35 PM 44.6 °F - 30.2 °F 57% 30.32 in 10.0 mi Calm Calm - N/A   Clear
8:55 PM 44.6 °F - 30.2 °F 57% 30.32 in 10.0 mi Calm Calm - N/A   Clear
9:15 PM 44.6 °F - 30.2 °F 57% 30.33 in 10.0 mi Calm Calm - N/A   Clear
9:35 PM 44.6 °F - 30.2 °F 57% 30.33 in 10.0 mi Calm Calm - N/A   Clear
9:55 PM 42.8 °F - 30.2 °F 61% 30.33 in 10.0 mi Calm Calm - N/A   Clear
10:15 PM 42.8 °F 41.1 °F 28.4 °F 57% 30.33 in 10.0 mi SSW 3.5 mph - N/A   Clear
10:35 PM 41.0 °F - 30.2 °F 65% 30.33 in 10.0 mi Calm Calm - N/A   Clear
10:55 PM 42.8 °F - 30.2 °F 61% 30.34 in 10.0 mi Calm Calm - N/A   Clear
11:15 PM 41.0 °F - 30.2 °F 65% 30.33 in 10.0 mi Calm Calm - N/A   Clear
11:35 PM 39.2 °F - 30.2 °F 70% 30.32 in 10.0 mi Calm Calm - N/A   Clear
11:55 PM 39.2 °F - 28.4 °F 65% 30.32 in 10.0 mi Calm Calm - N/A   Clear